DW9313 Weather Reports


time (UTC)temp
C
wind
direction
speed
KPH
gust
KPH
rain 1hr
cm
rain 24hr
cm
rain mn
cm
humidity
%
barometer
mb
20260505124315 13 296 3.2 9.7 0.00 0.03 0.00 65 1016.2
20260505123816 13 300 6.4 11.3 0.00 0.03 0.00 65 1016.2
20260505123317 13 298 4.8 9.7 0.00 0.03 0.00 66 1016.2
20260505122815 13 304 1.6 4.8 0.00 0.03 0.00 67 1016.3
20260505122315 13 307 4.8 11.3 0.00 0.03 0.00 66 1016.3
20260505121817 13 298 3.2 11.3 0.00 0.03 0.00 67 1016.3
20260505121314 13 312 4.8 11.3 0.00 0.03 0.00 66 1016.2
20260505120817 13 309 1.6 4.8 0.00 0.03 0.00 67 1016.2
20260505120315 13 259 1.6 8.0 0.00 0.03 0.00 67 1016.2
20260505115815 13 154 1.6 11.3 0.00 0.03 0.00 67 1016.2
20260505115316 13 129 1.6 9.7 0.00 0.03 0.00 68 1016.3
20260505114817 13 268 0.0 8.0 0.00 0.03 0.00 67 1016.3
20260505114315 13 242 1.6 9.7 0.00 0.03 0.00 67 1016.3
20260505113815 12 140 1.6 9.7 0.00 0.03 0.00 67 1016.3
20260505113316 12 118 0.0 9.7 0.00 0.03 0.00 67 1016.2
20260505112817 12 193 1.6 4.8 0.00 0.03 0.00 66 1016.3
20260505112315 12 105 3.2 8.0 0.00 0.03 0.00 66 1016.4
20260505111816 12 278 1.6 9.7 0.00 0.03 0.00 66 1016.4
20260505111316 12 239 3.2 8.0 0.00 0.03 0.00 66 1016.3
20260505110815 12 268 1.6 9.7 0.00 0.03 0.00 66 1016.4
20260505110316 12 308 6.4 12.9 0.00 0.03 0.00 65 1016.4
20260505101816 12 296 4.8 19.3 0.00 0.03 0.00 69 1016.5
20260505101316 12 302 4.8 11.3 0.00 0.03 0.00 69 1016.5
20260505100817 12 307 9.7 14.5 0.00 0.03 0.00 68 1016.5
20260505100316 12 288 3.2 11.3 0.00 0.03 0.00 70 1016.5
20260505095816 12 308 4.8 14.5 0.00 0.03 0.00 71 1016.4
20260505095316 12 301 8.0 12.9 0.00 0.03 0.00 73 1016.5
20260505094817 12 276 1.6 8.0 0.00 0.03 0.00 75 1016.5
20260505094317 11 324 3.2 9.7 0.00 0.03 0.00 73 1016.5
20260505093816 11 309 8.0 16.1 0.00 0.03 0.00 74 1016.5
20260505093317 11 316 8.0 12.9 0.00 0.03 0.00 74 1016.5
20260505092816 11 302 6.4 11.3 0.00 0.03 0.00 74 1016.6
20260505091817 11 304 6.4 9.7 0.00 0.03 0.00 77 1016.5
20260505091318 11 302 4.8 14.5 0.00 0.03 0.00 78 1016.5
20260505090817 11 318 4.8 11.3 0.00 0.03 0.00 78 1016.5
20260505090318 11 320 3.2 9.7 0.00 0.03 0.00 79 1016.4
20260505085817 11 311 4.8 11.3 0.00 0.03 0.00 80 1016.5
20260505085317 10 306 6.4 9.7 0.00 0.03 0.00 79 1016.5
20260505084818 10 314 3.2 12.9 0.00 0.03 0.00 80 1016.5
20260505084316 10 310 4.8 11.3 0.00 0.03 0.00 79 1016.5
20260505083818 10 306 4.8 9.7 0.00 0.03 0.00 79 1016.5
20260505083317 10 313 6.4 11.3 0.00 0.03 0.00 79 1016.5
20260505082817 10 314 9.7 14.5 0.00 0.03 0.00 79 1016.5
20260505082317 10 303 1.6 9.7 0.00 0.03 0.00 80 1016.5
20260505081817 10 304 3.2 11.3 0.00 0.03 0.00 80 1016.6
20260505081318 10 310 3.2 9.7 0.00 0.03 0.00 80 1016.5
20260505080317 10 298 3.2 9.7 0.00 0.03 0.00 82 1016.5
20260505075817 10 310 3.2 9.7 0.00 0.03 0.00 82 1016.5
20260505075317 10 311 4.8 11.3 0.00 0.03 0.00 82 1016.5
20260505074317 10 297 1.6 8.0 0.00 0.03 0.00 83 1016.5
20260505072817 9 308 3.2 9.7 0.00 0.03 0.00 84 1016.4
20260505072317 9 311 4.8 9.7 0.00 0.03 0.00 84 1016.4
20260505071318 9 312 4.8 9.7 0.00 0.03 0.00 85 1016.5
20260505070319 8 311 3.2 9.7 0.00 0.03 0.00 85 1016.5
20260505065818 8 308 4.8 9.7 0.00 0.03 0.00 85 1016.5
20260505065318 8 308 4.8 9.7 0.00 0.03 0.00 85 1016.6
20260505064318 8 307 4.8 9.7 0.00 0.03 0.00 86 1016.6
20260505063818 8 311 1.6 9.7 0.00 0.03 0.00 86 1016.6
20260505063317 8 311 4.8 9.7 0.00 0.03 0.00 86 1016.6
20260505062819 8 312 4.8 9.7 0.00 0.03 0.00 86 1016.6
20260505062319 8 312 4.8 9.7 0.00 0.03 0.00 86 1016.6
20260505061819 8 307 3.2 9.7 0.00 0.03 0.00 86 1016.6
20260505061318 8 312 4.8 9.7 0.00 0.03 0.00 86 1016.6
20260505060818 8 314 4.8 9.7 0.00 0.03 0.00 85 1016.5
20260505060318 8 314 3.2 9.7 0.00 0.03 0.00 85 1016.5
20260505055818 8 309 4.8 9.7 0.00 0.03 0.00 85 1016.6
20260505055318 8 311 4.8 9.7 0.00 0.03 0.00 85 1016.5
20260505054818 8 305 3.2 9.7 0.00 0.03 0.00 85 1016.6
20260505053827 8 311 4.8 9.7 0.00 0.03 0.00 85 1016.6
20260505053327 8 305 4.8 9.7 0.00 0.03 0.00 85 1016.6
20260505051830 8 312 1.6 9.7 0.00 0.03 0.00 84 1016.5
20260505050819 8 314 3.2 8.0 0.00 0.03 0.00 84 1016.4
20260505041320 7 306 0.0 1.6 0.00 0.03 0.00 86 1016.3
20260505040820 7 307 0.0 1.6 0.00 0.03 0.00 87 1016.3
20260505040320 7 278 0.0 1.6 0.00 0.03 0.00 87 1016.2
20260505035821 7 276 0.0 1.6 0.00 0.03 0.00 87 1016.2
20260505035320 7 276 0.0 1.6 0.00 0.03 0.00 87 1016.2
20260505034819 7 275 0.0 1.6 0.00 0.03 0.00 86 1016.3
20260505034320 7 275 0.0 1.6 0.00 0.03 0.00 86 1016.4
20260505033819 7 302 0.0 1.6 0.00 0.03 0.00 86 1016.3
20260505033320 7 313 0.0 3.2 0.00 0.03 0.00 86 1016.3
20260505032819 7 321 1.6 4.8 0.00 0.03 0.00 86 1016.4
20260505032320 7 315 1.6 8.0 0.00 0.03 0.00 86 1016.4
20260505031821 7 310 1.6 3.2 0.00 0.03 0.00 86 1016.4
20260505031319 7 308 0.0 1.6 0.00 0.03 0.00 86 1016.4
20260505030321 7 305 1.6 3.2 0.00 0.03 0.00 86 1016.5
20260505025319 7 315 1.6 3.2 0.00 0.03 0.00 85 1016.5
20260505024320 7 314 0.0 3.2 0.00 0.03 0.00 85 1016.4
20260505023820 7 297 0.0 3.2 0.00 0.03 0.00 85 1016.4
20260505023319 7 326 1.6 3.2 0.00 0.03 0.00 85 1016.3
20260505022819 7 309 1.6 4.8 0.00 0.03 0.00 85 1016.4
20260505022320 7 314 1.6 4.8 0.00 0.03 0.00 85 1016.5
20260505021819 8 311 3.2 4.8 0.00 0.03 0.00 85 1016.4
20260505020819 8 308 3.2 8.0 0.00 0.03 0.00 85 1016.4
20260505020321 8 311 3.2 9.7 0.00 0.03 0.00 86 1016.4
20260505015320 8 292 1.6 3.2 0.00 0.03 0.00 87 1016.4
20260505014821 8 314 1.6 3.2 0.00 0.03 0.00 87 1016.4
20260505013820 8 304 4.8 9.7 0.00 0.03 0.00 87 1016.4
20260505013320 8 314 6.4 11.3 0.00 0.03 0.00 87 1016.4
20260505012820 8 313 6.4 11.3 0.00 0.03 0.00 87 1016.3
20260505012321 8 311 3.2 8.0 0.00 0.03 0.00 88 1016.3
20260505011821 8 312 3.2 8.0 0.00 0.03 0.00 88 1016.3
20260505011320 8 306 3.2 4.8 0.00 0.03 0.00 88 1016.4
20260505010821 8 306 3.2 9.7 0.00 0.03 0.00 88 1016.4
20260505010322 8 306 4.8 9.7 0.00 0.03 0.00 88 1016.4
20260505005821 8 301 4.8 9.7 0.00 0.03 0.00 88 1016.4
20260505005321 9 301 3.2 8.0 0.00 0.03 0.00 88 1016.5
20260505004821 9 307 4.8 9.7 0.00 0.03 0.00 88 1016.4
20260505004321 9 311 4.8 9.7 0.00 0.03 0.00 88 1016.5
20260505003321 9 313 4.8 9.7 0.00 0.03 0.00 88 1016.4
20260505002822 10 304 3.2 8.0 0.00 0.03 0.00 88 1016.4
20260505002320 10 310 3.2 9.7 0.00 0.03 0.00 88 1016.5
20260505001821 10 305 3.2 8.0 0.00 0.03 0.00 88 1016.4
20260505000821 10 307 3.2 8.0 0.00 0.03 0.00 88 1016.4
20260505000322 10 307 3.2 8.0 0.00 0.03 0.00 88 1016.4
20260504235822 10 311 4.8 11.3 0.00 0.03 0.00 88 1016.5
20260504235321 10 315 4.8 9.7 0.00 0.03 0.00 88 1016.6
20260504234822 10 312 4.8 9.7 0.00 0.03 0.00 88 1016.6
20260504233821 11 311 4.8 9.7 0.00 0.03 0.00 87 1016.5
20260504232321 11 301 1.6 3.2 0.00 0.03 0.00 86 1016.4
20260504231821 11 310 1.6 8.0 0.00 0.03 0.00 86 1016.5
20260504231322 11 312 1.6 4.8 0.00 0.03 0.00 86 1016.5
20260504230322 11 306 1.6 8.0 0.00 0.03 0.00 86 1016.4
20260504225821 11 313 1.6 4.8 0.00 0.03 0.03 86 1016.4
20260504224822 11 307 3.2 8.0 0.00 0.03 0.03 86 1016.4
20260504224322 11 310 3.2 8.0 0.00 0.03 0.03 86 1016.4
20260504223821 11 311 1.6 4.8 0.00 0.03 0.03 86 1016.5
20260504223322 11 310 1.6 4.8 0.00 0.03 0.03 86 1016.5
20260504222825 11 312 4.8 9.7 0.00 0.03 0.03 86 1016.6
20260504222322 11 312 3.2 9.7 0.00 0.03 0.03 85 1016.6
20260504221821 11 312 3.2 4.8 0.00 0.03 0.03 85 1016.6
20260504221323 12 312 3.2 8.0 0.00 0.03 0.03 85 1016.6
20260504220821 12 310 3.2 8.0 0.00 0.03 0.03 85 1016.7
20260504220322 12 312 3.2 8.0 0.00 0.03 0.03 85 1016.6
20260504215823 12 310 3.2 4.8 0.00 0.03 0.03 84 1016.6
20260504215321 12 318 1.6 3.2 0.00 0.03 0.03 84 1016.6
20260504214822 12 313 1.6 4.8 0.00 0.03 0.03 84 1016.6
20260504214322 12 316 1.6 4.8 0.00 0.03 0.03 84 1016.6
20260504213823 12 318 1.6 4.8 0.00 0.03 0.03 84 1016.6
20260504213322 12 314 1.6 3.2 0.00 0.03 0.03 84 1016.6
20260504212823 12 315 0.0 3.2 0.00 0.03 0.03 84 1016.6
20260504212322 12 317 1.6 3.2 0.00 0.03 0.03 85 1016.6
20260504211822 12 324 1.6 4.8 0.00 0.03 0.03 85 1016.6
20260504210823 12 311 1.6 3.2 0.00 0.03 0.03 85 1016.5
20260504210322 12 278 0.0 1.6 0.00 0.03 0.03 86 1016.6
20260504205824 12 277 0.0 1.6 0.00 0.03 0.03 86 1016.5
20260504205323 12 276 0.0 3.2 0.00 0.03 0.03 85 1016.5
20260504204822 12 308 0.0 0.0 0.00 0.03 0.03 85 1016.4
20260504204323 12 308 0.0 0.0 0.00 0.03 0.03 85 1016.4
20260504203322 12 308 0.0 0.0 0.00 0.03 0.03 85 1016.4
20260504202323 12 306 0.0 3.2 0.00 0.03 0.03 85 1016.3
20260504201823 12 299 0.0 1.6 0.00 0.03 0.03 85 1016.2
20260504201323 12 306 0.0 0.0 0.00 0.03 0.03 85 1016.2
20260504200822 12 284 0.0 1.6 0.00 0.03 0.03 85 1016.2
20260504195824 12 304 0.0 0.0 0.00 0.03 0.03 85 1016.2
20260504195324 12 308 0.0 1.6 0.00 0.03 0.03 85 1016.2
20260504194325 12 311 0.0 0.0 0.00 0.03 0.03 86 1016.2
20260504193823 12 311 0.0 0.0 0.00 0.03 0.03 86 1016.2
20260504193324 12 311 0.0 0.0 0.00 0.03 0.03 86 1016.2
20260504192824 12 311 0.0 0.0 0.00 0.03 0.03 86 1016.1
20260504191825 12 305 0.0 0.0 0.00 0.03 0.03 86 1016.0
20260504191323 12 305 0.0 0.0 0.00 0.03 0.03 86 1016.0
20260504190823 12 305 0.0 0.0 0.00 0.03 0.03 86 1016.0
20260504190325 12 305 0.0 0.0 0.00 0.03 0.03 86 1016.0
20260504185823 12 304 0.0 0.0 0.00 0.03 0.03 86 1016.0
20260504185324 12 306 0.0 0.0 0.00 0.03 0.03 86 1016.0
20260504184825 12 308 0.0 0.0 0.00 0.03 0.03 86 1016.0
20260504184323 12 304 0.0 3.2 0.00 0.03 0.03 86 1016.0
20260504183823 12 306 1.6 3.2 0.00 0.03 0.03 86 1016.0
20260504183323 12 304 1.6 3.2 0.00 0.03 0.03 86 1016.0
20260504182824 12 310 0.0 3.2 0.03 0.03 0.03 86 1016.0
20260504182323 12 303 0.0 3.2 0.03 0.03 0.03 86 1015.9
20260504181823 12 295 0.0 1.6 0.03 0.03 0.03 86 1015.9
20260504181324 12 265 0.0 1.6 0.03 0.03 0.03 86 1015.9
20260504180825 12 119 0.0 1.6 0.03 0.03 0.03 86 1015.9
20260504180323 12 119 0.0 0.0 0.03 0.03 0.03 86 1015.9
20260504175824 12 119 0.0 1.6 0.03 0.03 0.03 87 1015.8
20260504175326 12 100 0.0 0.0 0.03 0.03 0.03 87 1015.8
20260504174824 12 273 0.0 0.0 0.03 0.03 0.03 87 1015.9
20260504174323 12 294 0.0 0.0 0.03 0.03 0.03 87 1016.0
20260504173826 12 298 0.0 3.2 0.03 0.03 0.03 87 1015.9
20260504173323 12 303 1.6 3.2 0.03 0.03 0.03 87 1016.0
20260504172824 12 300 1.6 4.8 0.00 0.00 0.00 86 1016.0
20260504172323 13 303 0.0 3.2 0.00 0.00 0.00 84 1016.0
20260504171824 13 295 0.0 4.8 0.00 0.00 0.00 83 1016.0
20260504171324 13 240 0.0 4.8 0.00 0.00 0.00 82 1016.0
20260504170326 13 264 0.0 1.6 0.00 0.00 0.00 81 1015.9
20260504160325 14 109 1.6 3.2 0.00 0.00 0.00 77 1015.8
20260504150827 14 112 0.0 4.8 0.00 0.00 0.00 75 1016.0
20260504150325 15 184 0.0 3.2 0.00 0.00 0.00 75 1016.0
20260504141325 15 101 1.6 3.2 0.00 0.00 0.00 75 1015.9
20260504140326 15 113 0.0 4.8 0.00 0.00 0.00 75 1015.9